,Coso Junction,Coso Junction
,PM10_1HR,PM10_1HR
,UG/M3,UG/M3
Date,Value,Null Code
01-Feb-2021 00:00,2.8,
01-Feb-2021 01:00,2.7,
01-Feb-2021 02:00,2.5,
01-Feb-2021 03:00,2.5,
01-Feb-2021 04:00,4.5,
01-Feb-2021 05:00,4.4,
01-Feb-2021 06:00,4.3,
01-Feb-2021 07:00,6.8,
01-Feb-2021 08:00,4.5,
01-Feb-2021 09:00,4.8,
01-Feb-2021 10:00,5,
01-Feb-2021 11:00,4.3,
01-Feb-2021 12:00,2.8,
01-Feb-2021 13:00,5.3,
01-Feb-2021 14:00,6.9,
01-Feb-2021 15:00,5.2,
01-Feb-2021 16:00,7.5,
01-Feb-2021 17:00,8.4,
01-Feb-2021 18:00,3.8,
01-Feb-2021 19:00,4.1,
01-Feb-2021 20:00,6.9,
01-Feb-2021 21:00,8.7,
01-Feb-2021 22:00,4.5,
01-Feb-2021 23:00,4.3,
02-Feb-2021 00:00,4,
02-Feb-2021 01:00,7.6,
02-Feb-2021 02:00,4.6,
02-Feb-2021 03:00,4.2,
02-Feb-2021 04:00,5,
02-Feb-2021 05:00,5,
02-Feb-2021 06:00,5.7,
02-Feb-2021 07:00,5.7,
02-Feb-2021 08:00,9.1,
02-Feb-2021 09:00,11.2,
02-Feb-2021 10:00,11.5,
02-Feb-2021 11:00,6,
02-Feb-2021 12:00,9.5,
02-Feb-2021 13:00,11.8,
02-Feb-2021 14:00,12.1,
02-Feb-2021 15:00,10.4,
02-Feb-2021 16:00,5.8,
02-Feb-2021 17:00,2.7,
02-Feb-2021 18:00,3.1,
02-Feb-2021 19:00,4.2,
02-Feb-2021 20:00,2.2,
02-Feb-2021 21:00,1.7,
02-Feb-2021 22:00,4.2,
02-Feb-2021 23:00,2.7,
03-Feb-2021 00:00,2.3,
03-Feb-2021 01:00,3.6,
03-Feb-2021 02:00,4.5,
03-Feb-2021 03:00,2.7,
03-Feb-2021 04:00,3.9,
03-Feb-2021 05:00,4.5,
03-Feb-2021 06:00,7.7,
03-Feb-2021 07:00,5.8,
03-Feb-2021 08:00,4.3,
03-Feb-2021 09:00,,BA
03-Feb-2021 10:00,,BA
03-Feb-2021 11:00,,BA
03-Feb-2021 12:00,,BA
03-Feb-2021 13:00,1.7,
03-Feb-2021 14:00,2.8,
03-Feb-2021 15:00,8.6,
03-Feb-2021 16:00,11.6,
03-Feb-2021 17:00,12.9,
03-Feb-2021 18:00,12.3,
03-Feb-2021 19:00,6.9,
03-Feb-2021 20:00,25.6,
03-Feb-2021 21:00,38.3,
03-Feb-2021 22:00,26.9,
03-Feb-2021 23:00,26.3,
04-Feb-2021 00:00,31.7,
04-Feb-2021 01:00,14.2,
04-Feb-2021 02:00,6.9,
04-Feb-2021 03:00,5.3,
04-Feb-2021 04:00,4.4,
04-Feb-2021 05:00,5.2,
04-Feb-2021 06:00,5.8,
04-Feb-2021 07:00,3.3,
04-Feb-2021 08:00,5.1,
04-Feb-2021 09:00,4.4,
04-Feb-2021 10:00,4.8,
04-Feb-2021 11:00,6.1,
04-Feb-2021 12:00,6.3,
04-Feb-2021 13:00,6,
04-Feb-2021 14:00,6.2,
04-Feb-2021 15:00,5,
04-Feb-2021 16:00,6.3,
04-Feb-2021 17:00,1.4,
04-Feb-2021 18:00,4,
04-Feb-2021 19:00,5.2,
04-Feb-2021 20:00,6.3,
04-Feb-2021 21:00,5.8,
04-Feb-2021 22:00,4.5,
04-Feb-2021 23:00,3.2,
05-Feb-2021 00:00,6.5,
05-Feb-2021 01:00,3.6,
05-Feb-2021 02:00,4.1,
05-Feb-2021 03:00,2.9,
05-Feb-2021 04:00,3.9,
05-Feb-2021 05:00,2.4,
05-Feb-2021 06:00,4.9,
05-Feb-2021 07:00,3.9,
05-Feb-2021 08:00,3.5,
05-Feb-2021 09:00,7.2,
05-Feb-2021 10:00,7.3,
05-Feb-2021 11:00,2.9,
05-Feb-2021 12:00,2.1,
05-Feb-2021 13:00,2.5,
05-Feb-2021 14:00,6.1,
05-Feb-2021 15:00,7.9,
05-Feb-2021 16:00,9.4,
05-Feb-2021 17:00,8.5,
05-Feb-2021 18:00,2,
05-Feb-2021 19:00,4.8,
05-Feb-2021 20:00,7,
05-Feb-2021 21:00,8.1,
05-Feb-2021 22:00,5.5,
05-Feb-2021 23:00,8.7,
06-Feb-2021 00:00,11.4,
06-Feb-2021 01:00,10.8,
06-Feb-2021 02:00,5.9,
06-Feb-2021 03:00,6.1,
06-Feb-2021 04:00,5.6,
06-Feb-2021 05:00,8.4,
06-Feb-2021 06:00,6.4,
06-Feb-2021 07:00,5.3,
06-Feb-2021 08:00,5.6,
06-Feb-2021 09:00,7.2,
06-Feb-2021 10:00,11.4,
06-Feb-2021 11:00,3.9,
06-Feb-2021 12:00,1.4,
06-Feb-2021 13:00,3.8,
06-Feb-2021 14:00,10,
06-Feb-2021 15:00,9.2,
06-Feb-2021 16:00,10.1,
06-Feb-2021 17:00,5.3,
06-Feb-2021 18:00,13.1,
06-Feb-2021 19:00,5.4,
06-Feb-2021 20:00,7.2,
06-Feb-2021 21:00,6.7,
06-Feb-2021 22:00,6,
06-Feb-2021 23:00,5.8,
07-Feb-2021 00:00,4.5,
07-Feb-2021 01:00,5.7,
07-Feb-2021 02:00,4.7,
07-Feb-2021 03:00,5.1,
07-Feb-2021 04:00,5.6,
07-Feb-2021 05:00,6.3,
07-Feb-2021 06:00,6.9,
07-Feb-2021 07:00,7.1,
07-Feb-2021 08:00,8,
07-Feb-2021 09:00,11.2,
07-Feb-2021 10:00,10.2,
07-Feb-2021 11:00,2,
07-Feb-2021 12:00,3.6,
07-Feb-2021 13:00,4.3,
07-Feb-2021 14:00,6.4,
07-Feb-2021 15:00,9.2,
07-Feb-2021 16:00,9.4,
07-Feb-2021 17:00,5.4,
07-Feb-2021 18:00,6.6,
07-Feb-2021 19:00,1.2,
07-Feb-2021 20:00,5.2,
07-Feb-2021 21:00,6,
07-Feb-2021 22:00,5.2,
07-Feb-2021 23:00,6.1,
08-Feb-2021 00:00,6.9,
08-Feb-2021 01:00,7,
08-Feb-2021 02:00,5.2,
08-Feb-2021 03:00,6.3,
08-Feb-2021 04:00,6.3,
08-Feb-2021 05:00,5.7,
08-Feb-2021 06:00,7,
08-Feb-2021 07:00,5.3,
08-Feb-2021 08:00,9.2,
08-Feb-2021 09:00,12.1,
08-Feb-2021 10:00,11.1,
08-Feb-2021 11:00,5,
08-Feb-2021 12:00,6.9,
08-Feb-2021 13:00,8.6,
08-Feb-2021 14:00,10.9,
08-Feb-2021 15:00,11.6,
08-Feb-2021 16:00,9.6,
08-Feb-2021 17:00,26.8,
08-Feb-2021 18:00,10.4,
08-Feb-2021 19:00,8.9,
08-Feb-2021 20:00,7.6,
08-Feb-2021 21:00,7.9,
08-Feb-2021 22:00,7,
08-Feb-2021 23:00,7.1,
09-Feb-2021 00:00,7,
09-Feb-2021 01:00,8.7,
09-Feb-2021 02:00,8.2,
09-Feb-2021 03:00,8.3,
09-Feb-2021 04:00,11.8,
09-Feb-2021 05:00,11,
09-Feb-2021 06:00,11.3,
09-Feb-2021 07:00,8.5,
09-Feb-2021 08:00,11.8,
09-Feb-2021 09:00,,AX
09-Feb-2021 10:00,,AX
09-Feb-2021 11:00,,AX
09-Feb-2021 12:00,7,
09-Feb-2021 13:00,10.5,
09-Feb-2021 14:00,10.2,
09-Feb-2021 15:00,10.4,
09-Feb-2021 16:00,9.4,
09-Feb-2021 17:00,25.2,
09-Feb-2021 18:00,11.7,
09-Feb-2021 19:00,7,
09-Feb-2021 20:00,6,
09-Feb-2021 21:00,45.7,
09-Feb-2021 22:00,9,
09-Feb-2021 23:00,9.6,
10-Feb-2021 00:00,9.8,
10-Feb-2021 01:00,11,
10-Feb-2021 02:00,7,
10-Feb-2021 03:00,8.6,
10-Feb-2021 04:00,7,
10-Feb-2021 05:00,6.9,
10-Feb-2021 06:00,6.9,
10-Feb-2021 07:00,8.1,
10-Feb-2021 08:00,12.2,
10-Feb-2021 09:00,15.8,
10-Feb-2021 10:00,8.7,
10-Feb-2021 11:00,8.7,
10-Feb-2021 12:00,3.3,
10-Feb-2021 13:00,4.2,
10-Feb-2021 14:00,7.8,
10-Feb-2021 15:00,9.7,
10-Feb-2021 16:00,10,
10-Feb-2021 17:00,10,
10-Feb-2021 18:00,8.3,
10-Feb-2021 19:00,4.6,
10-Feb-2021 20:00,7.5,
10-Feb-2021 21:00,8.4,
10-Feb-2021 22:00,9.7,
10-Feb-2021 23:00,8.8,
11-Feb-2021 00:00,8.8,
11-Feb-2021 01:00,9.6,
11-Feb-2021 02:00,8.4,
11-Feb-2021 03:00,8.2,
11-Feb-2021 04:00,9.1,
11-Feb-2021 05:00,8,
11-Feb-2021 06:00,18.3,
11-Feb-2021 07:00,8.7,
11-Feb-2021 08:00,8.3,
11-Feb-2021 09:00,10.1,
11-Feb-2021 10:00,14.4,
11-Feb-2021 11:00,8.2,
11-Feb-2021 12:00,9.9,
11-Feb-2021 13:00,14.3,
11-Feb-2021 14:00,13.4,
11-Feb-2021 15:00,17.8,
11-Feb-2021 16:00,16,
11-Feb-2021 17:00,19.5,
11-Feb-2021 18:00,12.7,
11-Feb-2021 19:00,8.3,
11-Feb-2021 20:00,2.4,
11-Feb-2021 21:00,6.5,
11-Feb-2021 22:00,7.8,
11-Feb-2021 23:00,3.6,
12-Feb-2021 00:00,1.5,
12-Feb-2021 01:00,4.9,
12-Feb-2021 02:00,8.4,
12-Feb-2021 03:00,8,
12-Feb-2021 04:00,4.6,
12-Feb-2021 05:00,4.9,
12-Feb-2021 06:00,1.9,
12-Feb-2021 07:00,4.7,
12-Feb-2021 08:00,4.9,
12-Feb-2021 09:00,8.2,
12-Feb-2021 10:00,10,
12-Feb-2021 11:00,11.2,
12-Feb-2021 12:00,4.3,
12-Feb-2021 13:00,2.5,
12-Feb-2021 14:00,1.2,
12-Feb-2021 15:00,3.8,
12-Feb-2021 16:00,12.1,
12-Feb-2021 17:00,7.4,
12-Feb-2021 18:00,5.4,
12-Feb-2021 19:00,1.2,
12-Feb-2021 20:00,4.4,
12-Feb-2021 21:00,4.9,
12-Feb-2021 22:00,5.3,
12-Feb-2021 23:00,3.7,
13-Feb-2021 00:00,4,
13-Feb-2021 01:00,4,
13-Feb-2021 02:00,5.2,
13-Feb-2021 03:00,4.9,
13-Feb-2021 04:00,4.5,
13-Feb-2021 05:00,13.2,
13-Feb-2021 06:00,3.3,
13-Feb-2021 07:00,8.6,
13-Feb-2021 08:00,18.3,
13-Feb-2021 09:00,13.6,
13-Feb-2021 10:00,23.5,
13-Feb-2021 11:00,19.2,
13-Feb-2021 12:00,11,
13-Feb-2021 13:00,3.4,
13-Feb-2021 14:00,11.6,
13-Feb-2021 15:00,6.6,
13-Feb-2021 16:00,7.6,
13-Feb-2021 17:00,3.7,
13-Feb-2021 18:00,1.1,
13-Feb-2021 19:00,1.3,
13-Feb-2021 20:00,5.3,
13-Feb-2021 21:00,19.9,
13-Feb-2021 22:00,15.2,
13-Feb-2021 23:00,10.1,
14-Feb-2021 00:00,8.9,
14-Feb-2021 01:00,5.4,
14-Feb-2021 02:00,5.3,
14-Feb-2021 03:00,7,
14-Feb-2021 04:00,6.7,
14-Feb-2021 05:00,7.6,
14-Feb-2021 06:00,9.6,
14-Feb-2021 07:00,5,
14-Feb-2021 08:00,4.2,
14-Feb-2021 09:00,4.8,
14-Feb-2021 10:00,9.1,
14-Feb-2021 11:00,6.5,
14-Feb-2021 12:00,5,
14-Feb-2021 13:00,-0.6,
14-Feb-2021 14:00,5,
14-Feb-2021 15:00,2.9,
14-Feb-2021 16:00,9,
14-Feb-2021 17:00,13.9,
14-Feb-2021 18:00,1.5,
14-Feb-2021 19:00,3.6,
14-Feb-2021 20:00,7.4,
14-Feb-2021 21:00,6.5,
14-Feb-2021 22:00,7.1,
14-Feb-2021 23:00,6.5,
15-Feb-2021 00:00,6.2,
15-Feb-2021 01:00,6.4,
15-Feb-2021 02:00,4.5,
15-Feb-2021 03:00,7.1,
15-Feb-2021 04:00,5.9,
15-Feb-2021 05:00,8.8,
15-Feb-2021 06:00,8.1,
15-Feb-2021 07:00,8.1,
15-Feb-2021 08:00,8.5,
15-Feb-2021 09:00,7.7,
15-Feb-2021 10:00,16.9,
15-Feb-2021 11:00,10.3,
15-Feb-2021 12:00,7.5,
15-Feb-2021 13:00,8.3,
15-Feb-2021 14:00,8,
15-Feb-2021 15:00,8.6,
15-Feb-2021 16:00,6.5,
15-Feb-2021 17:00,9,
15-Feb-2021 18:00,5.7,
15-Feb-2021 19:00,6,
15-Feb-2021 20:00,4.4,
15-Feb-2021 21:00,8,
15-Feb-2021 22:00,9.6,
15-Feb-2021 23:00,7,
16-Feb-2021 00:00,7.7,
16-Feb-2021 01:00,6.8,
16-Feb-2021 02:00,8.5,
16-Feb-2021 03:00,2.4,
16-Feb-2021 04:00,0.6,
16-Feb-2021 05:00,5.2,
16-Feb-2021 06:00,5.3,
16-Feb-2021 07:00,4.3,
16-Feb-2021 08:00,5.2,
16-Feb-2021 09:00,14.3,
16-Feb-2021 10:00,10.6,
16-Feb-2021 11:00,4.6,
16-Feb-2021 12:00,2.4,
16-Feb-2021 13:00,6.1,
16-Feb-2021 14:00,8.4,
16-Feb-2021 15:00,11.7,
16-Feb-2021 16:00,9.7,
16-Feb-2021 17:00,8,
16-Feb-2021 18:00,8.1,
16-Feb-2021 19:00,8,
16-Feb-2021 20:00,9.8,
16-Feb-2021 21:00,7.8,
16-Feb-2021 22:00,9.3,
16-Feb-2021 23:00,6.4,
17-Feb-2021 00:00,8.5,
17-Feb-2021 01:00,7.1,
17-Feb-2021 02:00,7.9,
17-Feb-2021 03:00,7.1,
17-Feb-2021 04:00,6,
17-Feb-2021 05:00,5.1,
17-Feb-2021 06:00,4,
17-Feb-2021 07:00,4.2,
17-Feb-2021 08:00,11.5,
17-Feb-2021 09:00,9.2,
17-Feb-2021 10:00,7.5,
17-Feb-2021 11:00,17.4,
17-Feb-2021 12:00,12.6,
17-Feb-2021 13:00,9.5,
17-Feb-2021 14:00,9.8,
17-Feb-2021 15:00,23.4,
17-Feb-2021 16:00,13.6,
17-Feb-2021 17:00,2.4,
17-Feb-2021 18:00,7.5,
17-Feb-2021 19:00,10.5,
17-Feb-2021 20:00,9.1,
17-Feb-2021 21:00,7.1,
17-Feb-2021 22:00,8.3,
17-Feb-2021 23:00,7.4,
18-Feb-2021 00:00,6.4,
18-Feb-2021 01:00,5.9,
18-Feb-2021 02:00,6.3,
18-Feb-2021 03:00,6.7,
18-Feb-2021 04:00,5.5,
18-Feb-2021 05:00,7.9,
18-Feb-2021 06:00,11,
18-Feb-2021 07:00,7.3,
18-Feb-2021 08:00,4.5,
18-Feb-2021 09:00,3.9,
18-Feb-2021 10:00,4.8,
18-Feb-2021 11:00,10,
18-Feb-2021 12:00,4.8,
18-Feb-2021 13:00,4.6,
18-Feb-2021 14:00,24.1,
18-Feb-2021 15:00,22.2,
18-Feb-2021 16:00,14.9,
18-Feb-2021 17:00,12.3,
18-Feb-2021 18:00,13.3,
18-Feb-2021 19:00,16.9,
18-Feb-2021 20:00,8,
18-Feb-2021 21:00,5.9,
18-Feb-2021 22:00,5.8,
18-Feb-2021 23:00,6,
19-Feb-2021 00:00,5.8,
19-Feb-2021 01:00,4.1,
19-Feb-2021 02:00,9,
19-Feb-2021 03:00,5.2,
19-Feb-2021 04:00,5.7,
19-Feb-2021 05:00,5.7,
19-Feb-2021 06:00,6.1,
19-Feb-2021 07:00,6,
19-Feb-2021 08:00,6,
19-Feb-2021 09:00,7.4,
19-Feb-2021 10:00,11.1,
19-Feb-2021 11:00,7.8,
19-Feb-2021 12:00,11,
19-Feb-2021 13:00,12.3,
19-Feb-2021 14:00,6.4,
19-Feb-2021 15:00,15.4,
19-Feb-2021 16:00,18,
19-Feb-2021 17:00,7,
19-Feb-2021 18:00,3.4,
19-Feb-2021 19:00,10.2,
19-Feb-2021 20:00,9,
19-Feb-2021 21:00,9.6,
19-Feb-2021 22:00,7.3,
19-Feb-2021 23:00,7.5,
20-Feb-2021 00:00,7.8,
20-Feb-2021 01:00,8.9,
20-Feb-2021 02:00,3.8,
20-Feb-2021 03:00,7.5,
20-Feb-2021 04:00,8.7,
20-Feb-2021 05:00,13.8,
20-Feb-2021 06:00,12,
20-Feb-2021 07:00,28.5,
20-Feb-2021 08:00,9,
20-Feb-2021 09:00,6.4,
20-Feb-2021 10:00,5.3,
20-Feb-2021 11:00,12.2,
20-Feb-2021 12:00,27.1,
20-Feb-2021 13:00,25.3,
20-Feb-2021 14:00,32.7,
20-Feb-2021 15:00,32.6,
20-Feb-2021 16:00,18.9,
20-Feb-2021 17:00,4,
20-Feb-2021 18:00,2.7,
20-Feb-2021 19:00,6.8,
20-Feb-2021 20:00,9.3,
20-Feb-2021 21:00,9.1,
20-Feb-2021 22:00,8.4,
20-Feb-2021 23:00,8.4,
21-Feb-2021 00:00,5,
21-Feb-2021 01:00,4.4,
21-Feb-2021 02:00,5.7,
21-Feb-2021 03:00,4,
21-Feb-2021 04:00,5.3,
21-Feb-2021 05:00,4.7,
21-Feb-2021 06:00,5.2,
21-Feb-2021 07:00,3.9,
21-Feb-2021 08:00,5.2,
21-Feb-2021 09:00,3.5,
21-Feb-2021 10:00,4.3,
21-Feb-2021 11:00,7.6,
21-Feb-2021 12:00,6.3,
21-Feb-2021 13:00,1.5,
21-Feb-2021 14:00,4.6,
21-Feb-2021 15:00,4.1,
21-Feb-2021 16:00,6,
21-Feb-2021 17:00,1,
21-Feb-2021 18:00,3.9,
21-Feb-2021 19:00,7.2,
21-Feb-2021 20:00,6.2,
21-Feb-2021 21:00,5.9,
21-Feb-2021 22:00,5,
21-Feb-2021 23:00,8.8,
22-Feb-2021 00:00,4.6,
22-Feb-2021 01:00,4.3,
22-Feb-2021 02:00,4.7,
22-Feb-2021 03:00,4.8,
22-Feb-2021 04:00,5.3,
22-Feb-2021 05:00,5.5,
22-Feb-2021 06:00,5.3,
22-Feb-2021 07:00,4.5,
22-Feb-2021 08:00,4.6,
22-Feb-2021 09:00,4.6,
22-Feb-2021 10:00,11.6,
22-Feb-2021 11:00,7,
22-Feb-2021 12:00,0.3,
22-Feb-2021 13:00,3.2,
22-Feb-2021 14:00,4.1,
22-Feb-2021 15:00,17.7,
22-Feb-2021 16:00,13.2,
22-Feb-2021 17:00,7.2,
22-Feb-2021 18:00,5.1,
22-Feb-2021 19:00,2.1,
22-Feb-2021 20:00,6,
22-Feb-2021 21:00,5.7,
22-Feb-2021 22:00,5.1,
22-Feb-2021 23:00,5.1,
23-Feb-2021 00:00,4.6,
23-Feb-2021 01:00,4.1,
23-Feb-2021 02:00,5.2,
23-Feb-2021 03:00,6.4,
23-Feb-2021 04:00,6.7,
23-Feb-2021 05:00,5.2,
23-Feb-2021 06:00,5.8,
23-Feb-2021 07:00,5.5,
23-Feb-2021 08:00,7.8,
23-Feb-2021 09:00,18.3,
23-Feb-2021 10:00,23.3,
23-Feb-2021 11:00,21.4,
23-Feb-2021 12:00,12.8,
23-Feb-2021 13:00,8.8,
23-Feb-2021 14:00,7,
23-Feb-2021 15:00,4.7,
23-Feb-2021 16:00,6.9,
23-Feb-2021 17:00,5.6,
23-Feb-2021 18:00,5.7,
23-Feb-2021 19:00,1.9,
23-Feb-2021 20:00,5.9,
23-Feb-2021 21:00,11.3,
23-Feb-2021 22:00,7,
23-Feb-2021 23:00,5.9,
24-Feb-2021 00:00,6.6,
24-Feb-2021 01:00,3.6,
24-Feb-2021 02:00,5.3,
24-Feb-2021 03:00,6.4,
24-Feb-2021 04:00,7.3,
24-Feb-2021 05:00,5.1,
24-Feb-2021 06:00,5.6,
24-Feb-2021 07:00,6.5,
24-Feb-2021 08:00,7.9,
24-Feb-2021 09:00,12.8,
24-Feb-2021 10:00,15.9,
24-Feb-2021 11:00,10.5,
24-Feb-2021 12:00,4,
24-Feb-2021 13:00,3.8,
24-Feb-2021 14:00,4.3,
24-Feb-2021 15:00,4.3,
24-Feb-2021 16:00,7.5,
24-Feb-2021 17:00,103.7,
24-Feb-2021 18:00,161.3,
24-Feb-2021 19:00,238.5,
24-Feb-2021 20:00,223.7,
24-Feb-2021 21:00,200.2,
24-Feb-2021 22:00,237.7,
24-Feb-2021 23:00,138.4,
25-Feb-2021 00:00,92.9,
25-Feb-2021 01:00,79.8,
25-Feb-2021 02:00,80.2,
25-Feb-2021 03:00,40.7,
25-Feb-2021 04:00,36.8,
25-Feb-2021 05:00,30.2,
25-Feb-2021 06:00,26.9,
25-Feb-2021 07:00,23.2,
25-Feb-2021 08:00,21.8,
25-Feb-2021 09:00,18.8,
25-Feb-2021 10:00,17.5,
25-Feb-2021 11:00,16.8,
25-Feb-2021 12:00,16.4,
25-Feb-2021 13:00,17.6,
25-Feb-2021 14:00,12.9,
25-Feb-2021 15:00,13.1,
25-Feb-2021 16:00,10.5,
25-Feb-2021 17:00,13,
25-Feb-2021 18:00,14,
25-Feb-2021 19:00,14.3,
25-Feb-2021 20:00,11.5,
25-Feb-2021 21:00,12.9,
25-Feb-2021 22:00,8.6,
25-Feb-2021 23:00,10.1,
26-Feb-2021 00:00,9.2,
26-Feb-2021 01:00,9.8,
26-Feb-2021 02:00,8.6,
26-Feb-2021 03:00,8.8,
26-Feb-2021 04:00,9.6,
26-Feb-2021 05:00,11,
26-Feb-2021 06:00,16.9,
26-Feb-2021 07:00,7.2,
26-Feb-2021 08:00,10.1,
26-Feb-2021 09:00,13.5,
26-Feb-2021 10:00,14.3,
26-Feb-2021 11:00,,BA
26-Feb-2021 12:00,,BA
26-Feb-2021 13:00,,BA
26-Feb-2021 14:00,6.5,
26-Feb-2021 15:00,15.7,
26-Feb-2021 16:00,15.5,
26-Feb-2021 17:00,16.9,
26-Feb-2021 18:00,9.7,
26-Feb-2021 19:00,21,
26-Feb-2021 20:00,8.5,
26-Feb-2021 21:00,6.9,
26-Feb-2021 22:00,6.8,
26-Feb-2021 23:00,8,
27-Feb-2021 00:00,7.6,
27-Feb-2021 01:00,5.1,
27-Feb-2021 02:00,7,
27-Feb-2021 03:00,35.6,
27-Feb-2021 04:00,73.4,
27-Feb-2021 05:00,60.2,
27-Feb-2021 06:00,51.9,
27-Feb-2021 07:00,48.6,
27-Feb-2021 08:00,42.8,
27-Feb-2021 09:00,36.9,
27-Feb-2021 10:00,20.9,
27-Feb-2021 11:00,18.5,
27-Feb-2021 12:00,19.8,
27-Feb-2021 13:00,20.1,
27-Feb-2021 14:00,17.7,
27-Feb-2021 15:00,15.6,
27-Feb-2021 16:00,13.2,
27-Feb-2021 17:00,15.6,
27-Feb-2021 18:00,14.2,
27-Feb-2021 19:00,13.6,
27-Feb-2021 20:00,19.3,
27-Feb-2021 21:00,24.8,
27-Feb-2021 22:00,18.4,
27-Feb-2021 23:00,11.3,
28-Feb-2021 00:00,10.9,
28-Feb-2021 01:00,8.1,
28-Feb-2021 02:00,6.4,
28-Feb-2021 03:00,6.6,
28-Feb-2021 04:00,6.6,
28-Feb-2021 05:00,4.8,
28-Feb-2021 06:00,6.2,
28-Feb-2021 07:00,7.5,
28-Feb-2021 08:00,6.4,
28-Feb-2021 09:00,5.7,
28-Feb-2021 10:00,4.6,
28-Feb-2021 11:00,4.5,
28-Feb-2021 12:00,3.4,
28-Feb-2021 13:00,4,
28-Feb-2021 14:00,8.2,
28-Feb-2021 15:00,7.4,
28-Feb-2021 16:00,7,
28-Feb-2021 17:00,17.8,
28-Feb-2021 18:00,10.5,
28-Feb-2021 19:00,7.3,
28-Feb-2021 20:00,6.6,
28-Feb-2021 21:00,6,
28-Feb-2021 22:00,5.4,
28-Feb-2021 23:00,6.2,
